User: anonymous
Location: McDonald Observatory
(30.6717°N, 104.0221°W)
Time: 02:28:00
(UTC-05:00)
Language:

Cosmos 1484 Rocket - Orbit

View from above orbital plane
View from above orbital plane
View from above satellite
View from above satellite

Ground track
Ground track

The orbit data is extracted from the following two-line orbital elements,

1 14208U 83075B   14235.11355153  .00001422  00000-0  96751-4 0   966
2 14208 097.4199 269.5886 0043932 075.0011 285.6073 15.07111375692284
Epoch (UTC): 23 August 2014 02:43:30
Eccentricity: 0.0043932
inclination: 97.4199°
perigee height: 514 km
apogee height: 575 km
right ascension of ascending node: 269.5886°
argument of perigee: 75.0011°
revolutions per day: 15.07111375
mean anomaly at epoch: 285.6073°
orbit number at epoch: 69228

The dashed part of the orbit path shows where the satellite is in the earth's shadow,  

DLR